Showing default

IRIDE-MS2-HEO-2, 64569

Orbit data source: Space-Track

IRIDE-MS2-HEO-2, 64569 is an Italian payload satellite in SSO that was launched on Mon, 23 Jun 2025 UTC via an FALCON 9 launch vehicle from the Air Force Western Test Range (AFWTR). Payload-class satellites include a variety of spacecraft equipped with specific instruments for various scientific and technological missions. These include communications satellites like Starlink; space stations such as the ISS; scientific satellites like the Hubble; Earth observation satellites from companies like Planet Labs, Umbra, and HawkEye 360; GPS; miniature CubeSats for education and research; and military/defense satellites.

Loading next visibility...
Identifier
64569, 2025-135AT
Orbit
SSO
Country
Flag of ITIT
Related business
Manufacturer
ArgoTec
Mission
Operational Civil Imaging
Bus & Motor
HAWK, Unknown motor
Mass
65 kg wet, 65 kg dry
Launch date (UTC)
2025-06-23 (9 months ago)
Launch vehicle
FALCON 9
Launch site
Air Force Western Test Range (AFWTR)
Object type
Payload
Rocket body
Debris
Shape & HBR
Box + 2 Pan, 3.0 m
Radar Cross Section
0.683 m², Medium (>0.1 m² and < 1m²)

Expand to show TLE details & history
Last TLE update: 7 hours ago

TLE from 7 hours ago
0 IRIDE-MS2-HEO-2
1 64569U 25135AT  26072.92135189  .00003313  00000-0  32219-3 0  9991
2 64569  97.7621 188.3319 0000874  10.1308 349.9929 14.93246219 39669
Epoch: 2026-03-13T22:06Z
TLE epoch observation values (Epoch: 2026-03-13T22:06:44.803Z)
Latitude
-0.00002°
Longitude
45.09527°
Altitude
590.266 km
Speed
7.565 km/s
True Right ascension
12h 33m 19s
True Declination
0° 00' 00"
Sunlit
Object was in full shadow at epoch
Visualization orbit readout
Latitude
Unknown
Longitude
Unknown
Altitude
Unknown
Speed
Unknown
Apparent Right ascension
Unknown
Apparent Declination
Unknown
Sunlit
N/A
Visualization observer readout
Local Sidereal Time
09:44:39
Azimuth
Unknown
Elevation
Unknown
Doppler factor
Unknown
Orbital elements
Apogee altitude
585.447 km
Perigee altitude
584.23 km
Semi-major axis
6,962.976 km
Eccentricity
0.00009
Inclination
97.7621°
RAAN
188.3319°
Arg. of periapsis
10.1308°
True anomaly
349.99116°
Mean anomaly
349.9929°
Eccentric anomaly
349.99203°
Mean motion
3.73552 °/min
Orbital period
96.37 mins
BSTAR
0.00032219
Loading maneuver chart data...
Computing Atmospheric mass density...
Loading historical data...
Loading historical data...
Loading historical data...
Loading historical data...
Loading historical data...
Loading historical data...
Loading historical data...

Documentation

Showing up to 5 results
|